www.pogodaiklimat.ru

Погода и климат >> Архив погоды >> Пакистан >> Суккур


ПОГОДА в Суккуре

  • Прогноз погоды в Суккуре
  • Монитор погоды в Суккуре

АРХИВ ПОГОДЫ в Суккуре

Время (UTC), дата Ветер
(напр.,м/с)
 
Видим.   Явления Облачность Т
(С)
Тd
(С)
f
(%)
Тe
(С)
Тes
(С)
Комфортность P
(гПа)
Po
(гПа)
Тmin
(С)
Tmax
(С)
R
(мм)
R24
(мм)
S
(см)
12 11.08 СВ 5 4000 м мгла 5/5 1200 м
[Sc diur, vesp]
+35.0 +26.8 63 +53 +54 опасность
перегрева
996.9 989.3 +35.5
15 11.08 СВ 5 4000 м мгла 5/5 1200 м
[Sc]
+33.0 +24.6 61 +46 +46 опасность
перегрева
998.4 992.1
18 11.08 СВ 3 4000 м мгла 4/0
[Ac trans]
+31.0 +24.6 69 +44 +44 опасность
перегрева
998.6 992.2
21 11.08 СВ 3 4000 м мгла 4/0
[Ac trans]
+31.0 +25.4 72 +45 +45 опасность
перегрева
999.3 992.9
00 12.08 СВ 3 4000 м мгла 4/0
[Ac trans]
+29.0 +24.8 78 +41 +41 опасность
перегрева
998.8 992.4
03 12.08 ЮВ 2 4000 м мгла 4/4 1200 м
[Sc]
+30.0 +24.3 72 +42 +45 опасность
перегрева
1003.5 998.8 +29.5
06 12.08 ЮВ 5 4000 м мгла 8/4 1080 м
[Sc Ac trans]
+32.0 +23.4 60 +43 +46 опасность
перегрева
1004.3 997.9
09 12.08 С 19 4000 м мгла 5/5 1200 м
[Sc]
+34.0 +24.1 56 +46 +46 опасность
перегрева
1001.8 995.5
12 12.08 ЮВ 3 4000 м мгла ясно +35.0 +23.7 52 +46 +49 опасность
перегрева
999.8 1099.2 +35.5
15 12.08 ЮВ 3 4000 м мгла ясно +33.0 +24.6 61 +46 +46 опасность
перегрева
1000.5 994.2
18 12.08 штиль 0 4000 м мгла ясно +32.0 +25.0 67 +46 +46 опасность
перегрева
1001.8 995.4
21 12.08 штиль 0 4000 м мгла ясно +31.0 +25.4 72 +45 +45 опасность
перегрева
1000.8 994.4
00 13.08 штиль 0 4000 м мгла ясно +29.0 +24.8 78 +41 +41 опасность
перегрева
1000.3 992.8
03 13.08 штиль 0 4000 м мгла ясно +30.0 +24.3 72 +42 +48 опасность
перегрева
1001.8 995.4 +29.5
06 13.08 Ю 5 4000 м мгла ясно +35.0 +25.3 57 +49 +58 опасность
перегрева
1002.2 995.9
09 13.08 Ю 5 4000 м мгла ясно +37.0 +22.8 44 +46 +55 опасность
перегрева
1000.9 994.6
12 13.08 Ю 6 4000 м мгла 3/3 1200 м
[Sc]
+38.0 +22.3 41 +47 +48 опасность
перегрева
1000.2 992.8 +38.5
15 13.08 Ю 4 4000 м мгла ясно +34.0 +24.1 56 +46 +46 опасность
перегрева
999.9 993.6
18 13.08 Ю 5 4000 м мгла ясно +33.0 +24.6 61 +46 +46 опасность
перегрева
1001.2 994.8
21 13.08 Ю 5 4000 м мгла ясно +32.0 +25.0 67 +46 +46 опасность
перегрева
1000.3 993.9
00 14.08 Ю 3 4000 м мгла ясно +30.0 +24.3 72 +42 +42 опасность
перегрева
1000.5 992.9
03 14.08 Ю 4 4000 м мгла ясно +31.0 +24.6 69 +44 +47 опасность
перегрева
1002.0 994.5 +28.5
06 14.08 Ю 4 4000 м мгла 6/0
[Ac trans Ci fib]
+34.0 +24.9 59 +47 +57 опасность
перегрева
1002.9 996.6
09 14.08 ЮВ 3 4000 м мгла 4/4 1200 м
[Sc diur, vesp]
+37.0 +24.4 49 +49 +58 опасность
перегрева
1001.2 994.9
12 14.08 Ю 4 4000 м мгла 3/3 1200 м
[Sc]
+38.0 +25.6 49 +52 +54 опасность
перегрева
999.8 992.4 +38.5
15 14.08 Ю 2 4000 м мгла 5/0
[Ac trans]
+36.0 +24.9 53 +49 +49 опасность
перегрева
1001.0 994.7
18 14.08 Ю 3 4000 м мгла ясно +33.0 +26.1 67 +49 +49 опасность
перегрева
1002.6 996.2
21 14.08 Ю 5 4000 м мгла ясно +31.0 +25.4 72 +45 +45 опасность
перегрева
1000.5 994.1
00 15.08 Ю 3 4000 м мгла 4/0
[Ac trans]
+29.0 +24.8 78 +41 +41 опасность
перегрева
1001.1 993.5
03 15.08 ЮВ 2 4000 м мгла 4/0
[Ci fib]
+30.0 +25.8 78 +45 +49 опасность
перегрева
1003.6 996.0 +28.5
09 15.08 Ю 5 4000 м мгла 4/0
[Ac trans]
+37.0 +26.0 53 +52 +59 опасность
перегрева
1001.8 995.5
12 15.08 СЗ 2 4000 м мгла 4/0
[Ac trans]
+38.0 +24.0 45 +49 +52 опасность
перегрева
999.8 993.6
15 15.08 штиль 0 4000 м мгла 3/0
[Ac trans]
+36.0 +24.9 53 +49 +49 опасность
перегрева
1001.2 994.9
18 15.08 Ю 5 4000 м мгла 4/0
[Ac trans]
+33.0 +26.1 67 +49 +49 опасность
перегрева
1002.7 996.3
21 15.08 Ю 2 4000 м мгла 5/0
[Ac trans]
+31.0 +25.4 72 +45 +45 опасность
перегрева
1001.4 995.0
00 16.08 Ю 3 4000 м мгла 5/0
[Ac trans]
+29.0 +24.8 78 +41 +41 опасность
перегрева
1001.5 993.9
03 16.08 Ю 3 4000 м мгла ясно +31.0 +25.4 72 +45 +49 опасность
перегрева
1001.9 994.4 +28.5
06 16.08 ЮВ 3 4000 м мгла ясно +35.0 +26.1 60 +51 +66 опасность
перегрева
1001.1 994.8
09 16.08 ЮЗ 3 4000 м мгла ясно +38.5 +25.4 48 +53 +67 опасность
перегрева
999.5 993.3
12 16.08 СЗ 2 4000 м мгла 4/1 1200 м
[Sc Ac trans]
+40.5 +26.2 45 +56 +58 опасность
перегрева
996.6 989.4 +41.0
15 16.08 Ю 5 4000 м мгла 4/0
[Ac trans]
+37.0 +26.0 53 +52 +52 опасность
перегрева
997.4 991.2
18 16.08 Ю 5 4000 м мгла 4/0
[Ac trans]
+33.0 +26.1 67 +49 +49 опасность
перегрева
999.0 992.7
21 16.08 Ю 4 4000 м мгла 4/0
[Ac trans]
+31.0 +25.4 72 +45 +45 опасность
перегрева
998.2 991.8
00 17.08 Ю 3 4000 м мгла ясно +30.0 +25.8 78 +45 +45 опасность
перегрева
997.9 991.5
03 17.08 Ю 4 4000 м мгла ясно +30.5 +24.9 72 +44 +46 опасность
перегрева
1000.3 996.4 +28.5
06 17.08 СВ 2 4000 м мгла ясно +36.0 +24.9 53 +49 +67 опасность
перегрева
1000.7 994.4
09 17.08 СВ 3 4000 м мгла ясно +39.0 +26.8 50 +55 +70 опасность
перегрева
999.0 992.8
12 17.08 штиль 0 4000 м мгла ясно +40.0 +26.4 47 +56 +61 опасность
перегрева
997.6 991.4 +40.5
15 17.08 штиль 0 4000 м мгла ясно +36.0 +27.2 61 +55 +55 опасность
перегрева
1002.2 995.9
18 17.08 Ю 5 4000 м мгла ясно +33.5 +25.1 62 +48 +48 опасность
перегрева
1000.9 994.6
21 17.08 Ю 5 4000 м мгла ясно +31.0 +25.4 72 +45 +45 опасность
перегрева
1000.2 993.8
00 18.08 Ю 3 4000 м мгла ясно +30.0 +25.6 77 +44 +44 опасность
перегрева
999.9 992.3
03 18.08 Ю 3 4000 м мгла ясно +30.0 +25.6 77 +44 +48 опасность
перегрева
1002.9 995.3 +28.5
06 18.08 ЮВ 3 4000 м мгла ясно +35.0 +25.3 57 +49 +64 опасность
перегрева
1002.3 996.0

 

Местоположение метеостанции Суккур (Пакистан): широта 27.71 долгота 68.77 высота над уровнем моря 57 м.

В архиве по умолчанию представлена погода в Суккуре за последнюю неделю. Архивные данные за месяц целиком и за предыдущие месяцы, начиная с января 2011 года, Вы можете получить, выбрав интересующий диапазон дат из раскрывающегося списка и нажав кнопку "Ввод!".


*Определитесь, кто Вы:
робот инопланетянин человек

Внимание! Время в таблицах - всемирное. Для получения местного времени необходимо прибавить поправку, которая равна 5 ч.

Смотрите также архив погоды в соседних городах и на ближайших метеорологических станциях:

Погода в Рохри (Пакистан) (14 км)
Погода в Ларкане (Пакистан) (62 км)
Погода в Джейкобабаде (Пакистан) (72 км)
Погода в Мохенджо-Даро (Пакистан) (77 км)
Погода в Пад Идан (Пакистан) (115 км)
Погода в Навабшахе (Пакистан) (167 км)
Погода в Рахим Яр Хан (Пакистан) (172 км)
Погода в Хуздаре (Пакистан) (211 км)
Погода в Ханпуре (Пакистан) (214 км)
Погода в Сиби (Пакистан) (222 км)

Пояснения к столбцам:

Ветер - указаны скорость ветра в м/с - средняя за 10 мин, порывы в срок и между сроками (в фигурных скобках) и направление, откуда дует ветер: С - северный, СВ - северо-восточный, В - восточный, ЮВ - юго-восточный, Ю - южный, ЮЗ - юго-западный, З - западный, СЗ - северо-западный.
Видимость - горизонтальная дальность видимости в метрах или километрах. При видимости от 1 до 10 км при отсутствии осадков обычно наблюдается дымка, при ухудшении видимости до 1 км и менее - туман. В сухую погоду видимость может ухудшаться дымом, пылью или мглою.
Явления - указаны атмосферные явления, наблюдавшиеся в срок или в последний час перед сроком; фигурными скобками обозначены явления, наблюдавшиеся между сроками (за 1-3 часа до срока); квадратными скобками обозначены град или гололедные отложения с указанием их диаметра в мм.
Облачность - указаны через наклонную черту общая и нижняя облачность в баллах и высота нижней границы облаков в метрах; квадратными скобками обозначены формы облаков: Ci - перистые, Cs - перисто-слоистые, Cc - перисто-кучевые, Ac - высококучевые, As - высокослоистые, Sc - слоисто-кучевые, Ns - слоисто-дождевые, Cu - кучевые, Cb - кучево-дождевые. Подробнее классификацию облаков см. в Атласе облаков (PDF).
T - Температура воздуха - температура, измеренная на высоте 2 м над землей.
Td - Температура точки росы - температура, при понижении до которой содержащийся в воздухе водяной пар достигнет насыщения.
f - Относительная влажность воздуха - влажноcть воздуха, измеренная на высоте 2 м над землей.
Te - Эффективная температура - температура, которую ощущает одетый по сезону человек в тени. Характеристика душности погоды. При расчете учитывается влияние влажности воздуха и скорости ветра на теплоощущения человека.
Tes - Эффективная температура на солнце - температура, которую ощущает человек, с поправкой на солнечный нагрев. Характеристика знойности погоды. Зависит от высоты солнца над горизонтом, облачности и скорости ветра. Ночью, в пасмурную погоду, а также при ветре 12 м/с и более поправка равна нулю.
P - Атмосферное давление - приведенное к уровню моря атмосферное давление.
Po - Атмосферное давление - измеренное на уровне метеостанции атмосферное давление.
Tmin - Минимальная температура - минимум температуры воздуха на высоте 2 м над землей.
Tmax - Максимальная температура - максимум температуры воздуха на высоте 2 м над землей.
R - Количество осадков - Количество выпавших осадков за период времени, мм. При наведении курсора мыши на число - период времени, за который выпало указанное количество осадков.
R24 - Количество осадков - Количество выпавших осадков за 24 часа, мм.
S - Снежный покров - Высота снежного покрова, см. При наведении курсора мыши на число - состояние снежного покрова и степень покрытия местности в баллах.